Time,TemperatureF,DewpointF,PressureIn,WindDirection,WindDirectionDegrees,WindSpeedMPH,WindSpeedGustMPH,Humidity,HourlyPrecipIn,Conditions,Clouds,dailyrainin,SoftwareType,DateUTC
2013-08-16 00:23:00,59.0,53.0,30.15,ENE,68,0.0,2.0,81,0.00,,,0.00,,2013-08-16 04:23:00,
2013-08-16 00:53:00,59.0,54.0,30.15,ENE,68,0.0,1.0,82,0.00,,,0.00,,2013-08-16 04:53:00,
2013-08-16 01:12:00,59.0,54.0,30.15,ENE,68,0.0,1.0,83,0.00,,,0.00,,2013-08-16 05:12:00,
2013-08-16 01:22:00,59.0,54.0,30.15,ENE,68,0.0,0.0,83,0.00,,,0.00,,2013-08-16 05:22:00,
2013-08-16 01:59:00,58.0,53.0,30.15,ENE,68,0.0,0.0,83,0.00,,,0.00,,2013-08-16 05:59:00,
2013-08-16 03:00:00,57.0,52.0,30.14,ENE,68,0.0,0.0,84,0.00,,,0.00,,2013-08-16 07:00:00,
2013-08-16 03:11:00,57.0,53.0,30.13,ENE,68,0.0,0.0,85,0.00,,,0.00,,2013-08-16 07:11:00,
2013-08-16 03:21:00,57.0,53.0,30.13,ENE,68,0.0,2.0,85,0.00,,,0.00,,2013-08-16 07:21:00,
2013-08-16 03:52:00,56.0,52.0,30.11,ENE,68,0.0,1.0,86,0.00,,,0.00,,2013-08-16 07:52:00,
2013-08-16 04:11:00,56.0,52.0,30.11,ENE,68,0.0,0.0,87,0.00,,,0.00,,2013-08-16 08:11:00,
2013-08-16 04:21:00,55.0,51.0,30.11,ENE,68,0.0,0.0,87,0.00,,,0.00,,2013-08-16 08:21:00,
2013-08-16 04:52:00,55.0,52.0,30.11,ENE,68,0.0,1.0,88,0.00,,,0.00,,2013-08-16 08:52:00,
2013-08-16 05:11:00,55.0,52.0,30.11,ENE,68,0.0,0.0,90,0.00,,,0.00,,2013-08-16 09:11:00,
2013-08-16 05:21:00,55.0,52.0,30.11,ENE,68,0.0,0.0,89,0.00,,,0.00,,2013-08-16 09:21:00,
2013-08-16 05:53:00,55.0,52.0,30.12,ENE,68,0.0,0.0,90,0.00,,,0.00,,2013-08-16 09:53:00,
2013-08-16 06:23:00,56.0,53.0,30.13,ENE,68,0.0,0.0,90,0.00,,,0.00,,2013-08-16 10:23:00,
2013-08-16 06:52:00,56.0,53.0,30.14,ENE,68,0.0,0.0,91,0.00,,,0.00,,2013-08-16 10:52:00,
2013-08-16 07:12:00,57.0,54.0,30.14,ENE,68,0.0,0.0,90,0.00,,,0.00,,2013-08-16 11:12:00,
2013-08-16 07:22:00,57.0,54.0,30.14,ENE,68,0.0,0.0,90,0.00,,,0.00,,2013-08-16 11:22:00,
2013-08-16 07:52:00,57.0,53.0,30.14,ENE,65,0.0,4.0,85,0.00,,,0.00,,2013-08-16 11:52:00,
2013-08-16 08:12:00,58.0,54.0,30.14,SSE,158,0.0,2.0,86,0.00,,,0.00,,2013-08-16 12:12:00,
2013-08-16 08:21:00,58.0,54.0,30.14,NE,48,0.0,2.0,85,0.00,,,0.00,,2013-08-16 12:21:00,
2013-08-16 08:52:00,58.0,53.0,30.15,East,79,0.0,3.0,84,0.00,,,0.00,,2013-08-16 12:52:00,
2013-08-16 09:11:00,58.0,53.0,30.15,East,89,0.0,1.0,82,0.00,,,0.00,,2013-08-16 13:11:00,
2013-08-16 09:22:00,59.0,53.0,30.16,North,5,0.0,1.0,81,0.00,,,0.00,,2013-08-16 13:22:00,
2013-08-16 09:42:00,59.0,53.0,30.16,North,5,0.0,1.0,81,0.00,,,0.00,,2013-08-16 13:42:00,
2013-08-16 09:53:00,59.0,52.0,30.16,ENE,68,0.0,5.0,78,0.00,,,0.00,,2013-08-16 13:53:00,
2013-08-16 10:11:00,60.0,52.0,30.16,NE,36,1.0,5.0,75,0.00,,,0.00,,2013-08-16 14:11:00,
2013-08-16 10:22:00,60.0,52.0,30.16,North,0,2.0,6.0,74,0.00,,,0.00,,2013-08-16 14:22:00,
2013-08-16 10:42:00,60.0,51.0,30.16,North,350,2.0,5.0,73,0.00,,,0.00,,2013-08-16 14:42:00,
2013-08-16 10:52:00,61.0,52.0,30.16,SE,124,1.0,5.0,73,0.00,,,0.00,,2013-08-16 14:52:00,
2013-08-16 11:12:00,61.0,52.0,30.16,SSW,200,0.0,3.0,73,0.00,,,0.00,,2013-08-16 15:12:00,
2013-08-16 11:22:00,61.0,53.0,30.16,North,352,2.0,5.0,74,0.00,,,0.00,,2013-08-16 15:22:00,
2013-08-16 11:56:00,62.0,52.0,30.16,NW,326,3.0,5.0,71,0.00,,,0.00,,2013-08-16 15:56:00,
2013-08-16 12:23:00,62.0,52.0,30.16,NNW,337,0.0,8.0,71,0.00,,,0.00,,2013-08-16 16:23:00,
2013-08-16 12:57:00,63.0,53.0,30.16,North,3,4.0,7.0,69,0.00,,,0.00,,2013-08-16 16:57:00,
2013-08-16 13:13:00,64.0,54.0,30.15,East,86,1.0,7.0,69,0.00,,,0.00,,2013-08-16 17:13:00,
2013-08-16 13:28:00,64.0,54.0,30.15,NE,34,0.0,8.0,70,0.00,,,0.00,,2013-08-16 17:28:00,
2013-08-16 14:00:00,65.0,55.0,30.15,NNW,347,3.0,8.0,70,0.00,,,0.00,,2013-08-16 18:00:00,
2013-08-16 14:28:00,66.0,56.0,30.14,North,351,2.0,7.0,69,0.00,,,0.00,,2013-08-16 18:28:00,
2013-08-16 14:50:00,-999.0,-99.9,30.14,NNW,348,4.0,9.0,65,0.00,,,0.00,,2013-08-16 18:50:00,
2013-08-16 15:14:00,71.0,57.0,30.14,NNE,29,1.0,8.0,62,0.00,,,0.00,,2013-08-16 19:14:00,
2013-08-16 15:25:00,71.0,57.0,30.13,ESE,117,3.0,10.0,61,0.00,,,0.00,,2013-08-16 19:25:00,
2013-08-16 15:55:00,72.0,57.0,30.13,North,358,3.0,7.0,60,0.00,,,0.00,,2013-08-16 19:55:00,
2013-08-16 16:11:00,73.0,57.0,30.13,North,350,3.0,7.0,58,0.00,,,0.00,,2013-08-16 20:11:00,
2013-08-16 16:23:00,72.0,57.0,30.13,North,7,2.0,8.0,59,0.00,,,0.00,,2013-08-16 20:23:00,
2013-08-16 16:52:00,73.0,57.0,30.12,NNW,340,2.0,8.0,58,0.00,,,0.00,,2013-08-16 20:52:00,
2013-08-16 17:11:00,73.0,57.0,30.12,NE,37,3.0,7.0,58,0.00,,,0.00,,2013-08-16 21:11:00,
2013-08-16 17:25:00,74.0,58.0,30.12,North,352,3.0,6.0,57,0.00,,,0.00,,2013-08-16 21:25:00,
2013-08-16 17:40:00,-999.0,-99.9,30.12,SSW,203,1.0,7.0,-999,0.00,,,0.00,,2013-08-16 21:40:00,
2013-08-16 17:53:00,74.0,57.0,30.12,NW,320,2.0,7.0,56,0.00,,,0.00,,2013-08-16 21:53:00,
2013-08-16 18:24:00,71.0,57.0,30.13,NE,37,2.0,5.0,61,0.00,,,0.00,,2013-08-16 22:24:00,
2013-08-16 18:52:00,70.0,57.0,30.13,North,0,0.0,3.0,64,0.00,,,0.00,,2013-08-16 22:52:00,
2013-08-16 19:12:00,69.0,57.0,30.12,NNE,13,1.0,5.0,66,0.00,,,0.00,,2013-08-16 23:12:00,
2013-08-16 19:23:00,68.0,57.0,30.12,NNW,347,3.0,6.0,68,0.00,,,0.00,,2013-08-16 23:23:00,
2013-08-16 19:52:00,67.0,60.0,30.13,ENE,67,0.0,1.0,77,0.00,,,0.00,,2013-08-16 23:52:00,
2013-08-16 20:11:00,66.0,57.0,30.14,ENE,67,0.0,0.0,74,0.00,,,0.00,,2013-08-17 00:11:00,
2013-08-16 20:21:00,65.0,57.0,30.14,ENE,67,0.0,0.0,75,0.00,,,0.00,,2013-08-17 00:21:00,
2013-08-16 20:42:00,64.0,57.0,30.15,ENE,71,0.0,0.0,78,0.00,,,0.00,,2013-08-17 00:42:00,
2013-08-16 20:52:00,63.0,56.0,30.15,ENE,71,0.0,1.0,79,0.00,,,0.00,,2013-08-17 00:52:00,
2013-08-16 21:11:00,62.0,56.0,30.16,ENE,71,0.0,2.0,82,0.00,,,0.00,,2013-08-17 01:11:00,
2013-08-16 21:21:00,61.0,56.0,30.16,ENE,71,0.0,1.0,83,0.00,,,0.00,,2013-08-17 01:21:00,
2013-08-16 21:42:00,61.0,56.0,30.16,ENE,71,0.0,1.0,85,0.00,,,0.00,,2013-08-17 01:42:00,
2013-08-16 21:52:00,61.0,56.0,30.17,ENE,57,0.0,4.0,84,0.00,,,0.00,,2013-08-17 01:52:00,
2013-08-16 22:21:00,62.0,56.0,30.17,ENE,75,0.0,10.0,81,0.00,,,0.00,,2013-08-17 02:21:00,
2013-08-16 22:42:00,62.0,56.0,30.18,ESE,118,1.0,3.0,81,0.00,,,0.00,,2013-08-17 02:42:00,
2013-08-16 22:52:00,62.0,56.0,30.19,ENE,60,1.0,4.0,81,0.00,,,0.00,,2013-08-17 02:52:00,
2013-08-16 23:11:00,62.0,56.0,30.18,ENE,67,0.0,4.0,80,0.00,,,0.00,,2013-08-17 03:11:00,
2013-08-16 23:22:00,62.0,55.0,30.19,NE,55,1.0,6.0,79,0.00,,,0.00,,2013-08-17 03:22:00,
2013-08-16 23:53:00,62.0,56.0,30.18,SSW,201,0.0,6.0,81,0.00,,,0.00,,2013-08-17 03:53:00,